Location: Palomar Observatory
(33.3560°N, 116.8630°W)
Time: 02:37:26
(UTC-07:00)

Iridium 57 - Visible Passes

Search period start: 26 April 2018 00:00
Search period end: 06 May 2018 00:00
Orbit: 776 x 779 km, 86.4° (Epoch: 25 April)

Date Brightness Start Highest point End Pass type
(mag) Time Alt. Az. Time Alt. Az. Time Alt. Az.
26 Apr 5.8 21:06:50 10° S 21:12:01 70° W 21:17:13 10° N visible
27 Apr 5.5 20:33:21 10° SSE 20:38:26 60° E 20:43:34 10° N visible
27 Apr 8.3 22:17:32 10° W 22:19:31 12° WNW 22:21:31 10° NW visible
28 Apr 6.3 20:00:30 10° SE 20:05:00 30° E 20:09:30 10° NNE visible
28 Apr 7.7 21:41:30 10° SW 21:45:39 24° W 21:49:48 10° NNW visible
29 Apr 6.5 21:06:54 10° SSW 21:11:53 46° W 21:16:54 10° NNW visible
30 Apr 5.5 20:33:03 10° S 20:38:15 89° E 20:43:29 10° N visible
01 May 5.9 19:59:48 10° SSE 20:04:44 45° E 20:09:41 10° NNE visible
01 May 8.2 21:42:28 10° WSW 21:45:37 16° WNW 21:48:48 10° NW visible
02 May 7.3 21:07:14 10° SW 21:11:48 31° W 21:16:24 10° NNW visible
03 May 6.1 20:32:58 10° SSW 20:38:06 61° W 20:43:15 10° N visible
04 May 5.5 19:59:22 10° S 20:04:30 68° E 20:09:41 10° N visible
04 May 8.7 21:44:46 10° W 21:45:40 10° WNW 21:46:33 10° WNW visible
05 May 8.0 21:07:52 10° SW 21:11:46 21° W 21:15:40 10° NNW visible
